TimeCST,TemperatureF,Dew PointF,Humidity,Sea Level PressureIn,VisibilityMPH,Wind Direction,Wind SpeedMPH,Gust SpeedMPH,PrecipitationIn,Events,Conditions,WindDirDegrees,DateUTC
12:15 AM,22.1,19.4,89,29.72,10.0,West,9.2,-,N/A,,Clear,280,2014-01-11 06:15:00
12:35 AM,23.0,20.1,89,29.72,10.0,WNW,9.2,-,N/A,,Mostly Cloudy,290,2014-01-11 06:35:00
12:55 AM,25.2,21.9,87,29.72,10.0,WNW,9.2,-,N/A,,Overcast,300,2014-01-11 06:55:00
1:15 AM,26.8,23.0,86,29.71,10.0,West,9.2,-,N/A,,Overcast,280,2014-01-11 07:15:00
1:35 AM,25.2,21.2,85,29.71,10.0,WNW,9.2,-,N/A,,Scattered Clouds,290,2014-01-11 07:35:00
1:55 AM,26.1,21.9,84,29.72,10.0,West,9.2,-,N/A,,Mostly Cloudy,280,2014-01-11 07:55:00
2:15 AM,24.4,20.5,85,29.73,10.0,West,8.1,-,N/A,,Scattered Clouds,270,2014-01-11 08:15:00
2:30 AM,23.4,19.4,85,29.73,10.0,West,6.9,-,N/A,,Clear,270,2014-01-11 08:30:00
2:55 AM,23.9,19.6,84,29.74,10.0,WNW,4.6,-,N/A,,Clear,290,2014-01-11 08:55:00
3:15 AM,22.6,18.9,85,29.75,10.0,West,6.9,-,N/A,,Clear,280,2014-01-11 09:15:00
3:35 AM,22.8,19.2,86,29.75,10.0,WNW,6.9,-,N/A,,Clear,290,2014-01-11 09:35:00
3:55 AM,23.5,20.3,87,29.75,10.0,WNW,9.2,-,N/A,,Clear,300,2014-01-11 09:55:00
4:15 AM,26.1,22.3,86,29.76,10.0,WNW,10.4,-,N/A,,Clear,300,2014-01-11 10:15:00
4:35 AM,27.1,23.4,86,29.77,10.0,WNW,13.8,-,N/A,,Clear,300,2014-01-11 10:35:00
4:55 AM,31.6,26.2,80,29.78,10.0,WNW,15.0,-,N/A,,Clear,300,2014-01-11 10:55:00
5:15 AM,32.0,26.2,79,29.79,10.0,WNW,15.0,-,N/A,,Clear,300,2014-01-11 11:15:00
5:35 AM,30.9,25.7,81,29.79,10.0,WNW,16.1,-,N/A,,Clear,300,2014-01-11 11:35:00
5:55 AM,32.0,26.6,80,29.80,10.0,NW,15.0,-,N/A,,Clear,310,2014-01-11 11:55:00
6:15 AM,32.0,26.6,80,29.81,10.0,NW,12.7,-,N/A,,Clear,310,2014-01-11 12:15:00
6:35 AM,32.0,26.1,79,29.82,10.0,NW,11.5,-,N/A,,Clear,310,2014-01-11 12:35:00
6:55 AM,32.2,26.2,79,29.83,10.0,NW,15.0,-,N/A,,Clear,310,2014-01-11 12:55:00
7:15 AM,32.2,26.2,79,29.83,10.0,NW,13.8,-,N/A,,Clear,310,2014-01-11 13:15:00
7:35 AM,32.4,26.2,78,29.83,10.0,WNW,13.8,-,N/A,,Clear,300,2014-01-11 13:35:00
7:55 AM,32.4,26.2,78,29.83,10.0,NW,16.1,-,N/A,,Clear,310,2014-01-11 13:55:00
8:15 AM,32.4,26.2,78,29.84,10.0,NW,13.8,20.7,N/A,,Clear,310,2014-01-11 14:15:00
8:35 AM,32.2,25.7,77,29.84,10.0,NNW,11.5,-,N/A,,Clear,330,2014-01-11 14:35:00
8:55 AM,32.0,25.7,78,29.85,10.0,NW,11.5,-,N/A,,Clear,320,2014-01-11 14:55:00
9:15 AM,33.8,27.1,77,29.86,10.0,WNW,10.4,-,N/A,,Clear,300,2014-01-11 15:15:00
9:35 AM,35.6,28.2,75,29.87,10.0,WNW,16.1,20.7,N/A,,Clear,300,2014-01-11 15:35:00
9:55 AM,37.9,29.3,71,29.89,10.0,WNW,15.0,20.7,N/A,,Clear,300,2014-01-11 15:55:00
10:15 AM,40.3,29.1,64,29.89,10.0,WNW,19.6,25.3,N/A,,Clear,300,2014-01-11 16:15:00
10:35 AM,41.7,28.9,61,29.90,10.0,WNW,19.6,-,N/A,,Clear,290,2014-01-11 16:35:00
10:55 AM,42.8,28.9,58,29.91,10.0,WNW,20.7,-,N/A,,Clear,300,2014-01-11 16:55:00
11:10 AM,43.9,29.1,56,29.91,10.0,WNW,16.1,-,N/A,,Clear,300,2014-01-11 17:10:00
11:35 AM,45.5,29.1,53,29.90,10.0,WNW,17.3,-,N/A,,Clear,300,2014-01-11 17:35:00
11:55 AM,46.0,28.4,50,29.90,10.0,NW,17.3,-,N/A,,Clear,310,2014-01-11 17:55:00
12:15 PM,47.1,28.2,48,29.88,10.0,NW,15.0,-,N/A,,Clear,310,2014-01-11 18:15:00
12:35 PM,48.0,27.1,44,29.87,10.0,NW,11.5,-,N/A,,Clear,310,2014-01-11 18:35:00
12:55 PM,48.7,26.4,42,29.86,10.0,NW,12.7,17.3,N/A,,Clear,310,2014-01-11 18:55:00
1:15 PM,50.0,24.4,37,29.84,10.0,WNW,12.7,18.4,N/A,,Clear,300,2014-01-11 19:15:00
1:35 PM,50.0,24.3,37,29.83,10.0,WNW,9.2,-,N/A,,Clear,300,2014-01-11 19:35:00
1:55 PM,50.4,23.0,34,29.81,10.0,NW,11.5,18.4,N/A,,Clear,310,2014-01-11 19:55:00
2:15 PM,52.0,23.4,33,29.81,10.0,West,9.2,-,N/A,,Clear,280,2014-01-11 20:15:00
2:30 PM,52.2,21.6,30,29.82,10.0,West,8.1,-,N/A,,Clear,280,2014-01-11 20:30:00
2:55 PM,52.7,21.6,30,29.81,10.0,West,8.1,-,N/A,,Clear,260,2014-01-11 20:55:00
3:15 PM,52.7,21.6,30,29.81,10.0,West,10.4,-,N/A,,Clear,270,2014-01-11 21:15:00
3:35 PM,53.1,21.4,29,29.80,10.0,West,8.1,-,N/A,,Clear,260,2014-01-11 21:35:00
3:55 PM,53.2,21.2,29,29.80,10.0,West,4.6,-,N/A,,Clear,260,2014-01-11 21:55:00
4:10 PM,53.8,21.0,28,29.79,10.0,WSW,4.6,-,N/A,,Clear,240,2014-01-11 22:10:00
4:35 PM,53.2,22.1,30,29.78,10.0,WSW,8.1,-,N/A,,Clear,240,2014-01-11 22:35:00
4:50 PM,52.0,22.1,31,29.77,10.0,WSW,6.9,-,N/A,,Clear,240,2014-01-11 22:50:00
5:10 PM,49.1,21.6,34,29.77,10.0,SW,9.2,-,N/A,,Clear,220,2014-01-11 23:10:00
5:35 PM,44.1,20.8,40,29.77,10.0,SSW,6.9,-,N/A,,Clear,200,2014-01-11 23:35:00
5:55 PM,40.8,20.3,44,29.76,10.0,SSW,9.2,-,N/A,,Clear,210,2014-01-11 23:55:00
6:15 PM,39.6,20.3,46,29.76,10.0,SSW,9.2,-,N/A,,Clear,200,2014-01-12 00:15:00
6:30 PM,40.5,21.0,46,29.76,10.0,SSW,8.1,-,N/A,,Clear,210,2014-01-12 00:30:00
6:55 PM,38.7,21.2,50,29.74,10.0,South,8.1,-,N/A,,Clear,190,2014-01-12 00:55:00
7:10 PM,37.4,20.5,51,29.74,10.0,SSW,8.1,-,N/A,,Clear,200,2014-01-12 01:10:00
7:35 PM,38.3,21.6,51,29.73,10.0,SSW,6.9,-,N/A,,Clear,200,2014-01-12 01:35:00
7:50 PM,41.2,23.0,48,29.73,10.0,SSW,11.5,-,N/A,,Clear,210,2014-01-12 01:50:00
8:10 PM,44.8,22.8,42,29.71,10.0,SSW,16.1,20.7,N/A,,Clear,210,2014-01-12 02:10:00
8:35 PM,45.5,22.1,40,29.70,10.0,SSW,16.1,-,N/A,,Clear,210,2014-01-12 02:35:00
8:55 PM,45.7,21.7,39,29.69,10.0,SSW,16.1,23.0,N/A,,Clear,210,2014-01-12 02:55:00
9:15 PM,45.0,21.7,40,29.68,10.0,SSW,17.3,23.0,N/A,,Clear,210,2014-01-12 03:15:00
9:35 PM,44.2,21.4,40,29.67,10.0,SSW,16.1,21.9,N/A,,Clear,210,2014-01-12 03:35:00
9:55 PM,43.7,21.2,41,29.67,10.0,SSW,16.1,20.7,N/A,,Clear,210,2014-01-12 03:55:00
10:15 PM,42.1,21.4,44,29.66,10.0,SW,18.4,-,N/A,,Clear,220,2014-01-12 04:15:00
10:35 PM,42.3,21.2,43,29.65,10.0,SSW,12.7,18.4,N/A,,Clear,210,2014-01-12 04:35:00
10:55 PM,42.6,21.2,43,29.64,10.0,SSW,15.0,19.6,N/A,,Clear,210,2014-01-12 04:55:00
11:15 PM,42.3,21.0,43,29.63,10.0,SW,13.8,20.7,N/A,,Clear,220,2014-01-12 05:15:00
11:35 PM,43.3,21.0,41,29.62,10.0,SW,19.6,26.5,N/A,,Clear,220,2014-01-12 05:35:00
11:55 PM,43.0,20.8,41,29.61,10.0,SW,19.6,26.5,N/A,,Clear,220,2014-01-12 05:55:00